Location: Shades State Park
(39.9310°N, 87.0690°W)
Time: 14:37:38
(UTC-04:00)

Daily predictions for brighter satellites

Satellite Brightness Start Highest point End
(mag) Time Altitude Azimuth Time Altitude Azimuth Time Altitude Azimuth
ATLAS CENTAUR R/B 3.5 21:46:48 10° WNW 21:50:26 25° WSW 21:53:49 10° SSW
Cosmos 1939 Rocket 3.4 21:46:52 10° SE 21:50:35 41° ENE 21:54:16 10° N
Cosmos 773 Rocket 4.1 21:45:34 10° NNW 21:50:44 63° ENE 21:55:55 10° SSE
H-2A R/B 2.6 21:46:39 10° SE 21:51:00 49° ENE 21:55:22 10° N
CZ-4 DEB 3.3 21:48:51 10° S 21:52:01 60° WSW 21:55:12 10° NNW
Cosmos 1328 Rocket 3.7 21:48:03 10° N 21:52:31 87° W 21:56:57 10° S
Cosmos 1437 Rocket 2.9 21:49:08 10° N 21:52:54 56° E 21:56:42 10° SSE
COSMOS 2428 4.0 21:51:11 10° N 21:55:57 27° NE 22:00:43 10° ESE
SPOT 5 3.6 21:54:02 10° SE 21:58:12 35° ENE 22:02:35 10° N
Cosmos 968 Rocket 4.4 21:54:08 10° SW 21:59:12 54° WNW 22:04:21 10° N
NOSS 3-1 (A) 4.4 21:54:54 10° SSE 21:59:30 24° ESE 22:04:23 10° ENE
SJ-11-01 4.3 21:58:00 10° SSE 22:02:42 88° ENE 22:07:29 10° NNW
Cosmos 2219 Rocket 4.1 22:00:26 10° NNE 22:03:56 17° NE 22:07:25 10° E
Cosmos 304 Rocket 4.1 21:59:58 10° N 22:04:40 52° ENE 22:09:20 10° SE
Meteor 2-2 Rocket 4.4 21:59:14 10° N 22:05:15 80° E 22:11:18 10° SSE
Meteor 1-21 Rocket 4.5 22:04:14 10° SSW 22:09:45 73° W 22:15:18 10° N
Cosmos 1500 Rocket 4.1 22:10:14 10° SSW 22:14:33 63° W 22:18:57 10° N
Cosmos 1437 2.8 22:15:54 10° S 22:19:08 60° E 22:22:23 10° NNE
Cosmos 1328 4.0 22:16:20 10° S 22:20:10 51° E 22:24:02 10° NNE
Cosmos 1726 3.7 22:18:22 10° NNE 22:21:18 21° ENE 22:23:25 14° ESE
ATLAS 2AS CENTAUR R/B 4.3 22:18:20 11° SE 22:22:10 17° ESE 22:26:46 10° ENE
Envisat 3.0 22:20:01 10° SSE 22:25:05 88° E 22:30:12 10° NNW
ERS-1 Rocket 3.7 22:21:19 10° S 22:26:12 53° W 22:31:09 10° NNW
Cosmos 2219 3.2 22:22:32 10° S 22:28:13 66° ESE 22:33:55 10° NNE
Delta 2 Rocket 3.4 22:26:15 10° WSW 22:29:41 40° S 22:31:53 18° ESE
deb Chang Zheng 4 4.2 22:27:06 10° N 22:31:21 58° WNW 22:35:37 10° SSW
BREEZE M DEB (TANK) 4.3 22:33:28 10° SW 22:34:07 11° SSW 22:34:51 10° S
Cosmos 2237 Rocket 4.0 22:31:30 10° N 22:35:37 20° NE 22:39:41 10° E
Cosmos 2322 3.9 22:32:16 10° NNW 22:37:59 73° WSW 22:43:02 13° SSE
SL-23 DEB 3.9 22:33:01 10° NW 22:38:13 80° NE 22:40:32 20° ESE
Cosmos 2322 Rocket 4.2 22:33:50 10° NW 22:38:13 24° WSW 22:42:36 10° SSW
Cosmos 1271 Rocket 4.2 22:35:25 10° NNE 22:38:28 22° ENE 22:40:05 17° ESE
Cosmos 2112 Rocket 4.0 22:33:48 10° NNW 22:39:05 88° E 22:43:24 16° SSE
Cosmos 2151 3.2 22:36:51 10° SSW 22:41:02 72° W 22:45:14 10° N
SL-14 R/B 3.7 22:40:06 18° SSE 22:42:40 43° E 22:46:28 10° NNE
Meteor 1-4 Rocket 3.9 22:40:50 10° NNE 22:44:02 26° ENE 22:45:29 20° ESE
Cosmos 1937 Rocket 4.2 22:41:23 16° SSE 22:44:48 33° E 22:49:26 10° NE
NOSS 3-1 (C) 3.3 22:39:54 10° SSW 22:45:41 73° ESE 22:52:06 10° NE
Terra 3.5 22:43:25 14° ESE 22:45:55 21° ENE 22:49:23 10° NNE
Cosmos 2298 Rocket 4.1 22:41:09 10° S 22:46:21 58° ESE 22:51:34 10° NNE
Meteor 1-27 4.3 22:40:52 10° N 22:46:31 62° E 22:50:34 19° SSE
Cosmos 2360 Rocket 2.6 22:41:54 10° NNW 22:47:28 59° WSW 22:52:21 13° S
Aureole 3 4.5 22:42:31 10° S 22:49:17 81° W 22:54:40 10° N
MetOp-B 4.1 22:44:55 15° SSE 22:49:28 90° WSW 22:54:52 10° NNW
SL-16 R/B 4.3 22:45:38 10° NW 22:49:43 21° W 22:53:47 10° SSW
NOAA 11 4.5 22:47:19 19° SE 22:51:01 53° ENE 22:56:19 10° N
Sich 1 3.3 22:48:46 19° SSE 22:51:44 52° E 22:56:01 10° NNE
FALCON 9 R/B 4.5 22:16:09 10° WSW 22:52:08 69° S 23:00:17 10° E
CZ-4 SHROUD 3.9 22:51:29 17° S 22:53:38 50° W 22:56:43 10° NNW
USA 245 2.3 22:53:37 42° SE 22:54:09 55° ENE 22:56:26 10° N
DELTA 2 R/B (1) 4.0 22:49:43 10° W 22:55:01 47° SSW 22:58:07 23° SE
Cosmos 1633 Rocket 3.2 22:52:39 21° SSE 22:55:26 53° E 22:59:42 10° NNE
Cosmos 2058 2.9 22:52:03 10° S 22:56:06 80° W 23:00:12 10° N
OAO 2 Rocket 3.9 22:55:33 10° SW 23:00:26 38° SSE 23:03:20 21° ESE
Cosmos 1626 3.8 23:01:03 19° E 23:01:10 19° E 23:03:51 10° NE
SL-08 RB Rocket 3.7 23:06:50 28° SSE 23:09:05 67° ENE 23:13:33 10° N
CZ-4 R/B 3.8 23:04:56 10° NNE 23:09:52 74° ESE 23:13:19 19° S
H-2A R/B 2.7 23:08:02 25° SE 23:10:43 43° ENE 23:15:50 10° N
Cosmos 1805 Rocket 4.1 23:06:34 10° SSW 23:10:57 58° W 23:15:21 10° N
CZ-4B R/B 3.7 23:06:21 10° N 23:11:38 78° WNW 23:16:48 10° SSW
Meteor 1-11 4.4 23:08:13 10° SSW 23:13:59 76° W 23:19:44 10° N
Cosmos 2227 Rocket 2.7 23:11:30 26° SSE 23:14:01 40° ESE 23:19:16 10° NE
YAOGAN 6 3.4 23:12:45 22° SSW 23:14:46 47° W 23:18:17 10° NNW
Cosmos 1300 3.2 23:12:05 10° NNW 23:15:52 57° W 23:17:52 25° SSW
Tiangong 1 0.9 23:12:53 10° WSW 23:15:59 88° SSE 23:17:13 33° ENE
SPOT 1/Viking Rocket 3.9 23:19:48 22° S 23:23:04 62° WSW 23:28:11 10° NNW
Cosmos 1241 Rocket 4.5 23:22:15 17° S 23:26:55 57° ESE 23:33:01 10° NE
Cosmos 1898 Rocket 3.7 23:22:35 10° SSW 23:27:43 69° WNW 23:32:56 10° NNE
Cosmos 2333 Rocket 2.5 23:23:06 10° NNW 23:28:45 56° ENE 23:31:18 32° SE
SL-16 R/B 3.8 23:24:40 10° N 23:29:10 23° NE 23:32:01 16° E
IGS 5A 3.9 23:29:10 38° ESE 23:30:10 46° ENE 23:34:11 10° N
Cosmos 220 Rocket 4.0 23:31:40 25° SSW 23:34:10 84° WNW 23:38:38 10° NNE
Cosmos 1455 2.3 23:34:44 10° N 23:38:28 53° E 23:38:49 51° ESE
Nadezhda 1 Rocket 3.9 23:33:26 10° N 23:39:32 75° E 23:42:17 35° SSE
COSMOS 2428 3.5 23:35:01 10° NW 23:40:22 44° WSW 23:43:19 25° SSW
SAR-Lupe-2 3.7 23:40:40 54° E 23:40:52 55° ENE 23:44:23 10° N
Cosmos 2297 Rocket 2.5 23:39:29 37° SSE 23:41:01 47° ESE 23:46:25 10° NE
ARGOS 3.8 23:41:02 24° SSW 23:44:04 49° W 23:49:18 10° NNW
Cosmos 1470 Rocket 3.5 23:45:42 44° SSW 23:47:03 83° W 23:51:23 10° N
Cosmos 1933 Rocket 3.5 23:46:49 43° SSW 23:48:15 84° W 23:52:45 10° N
Cosmos 2219 Rocket 2.2 23:42:55 10° NNW 23:48:32 78° WSW 23:50:35 40° S
NOSS 3-1 (A) 4.1 23:44:03 10° SW 23:49:49 54° NW 23:56:15 10° NNE
Cosmos 1745 Rocket 4.1 23:47:12 23° SSW 23:51:17 73° W 23:57:29 10° N
Cosmos 1869 3.2 23:51:54 10° N 23:55:58 73° E 23:56:15 69° ESE
Cosmos 1726 4.2 23:53:37 10° NW 23:56:35 22° W 23:58:06 18° WSW
